Showing default

EXPLORER 31 (ISIS-X), 1806

Orbit data source: Space-Track

EXPLORER 31 (ISIS-X), 1806 is a payload satellite owned by GSFC (US) in LEO that was launched on Mon, 29 Nov 1965 UTC via a THOR SLV-2 AGENA B launch vehicle from the Air Force Western Test Range (AFWTR). Payload-class satellites include a variety of spacecraft equipped with specific instruments for various scientific and technological missions. These include communications satellites like Starlink; space stations such as the ISS; scientific satellites like the Hubble; Earth observation satellites from companies like Planet Labs, Umbra, and HawkEye 360; GPS; miniature CubeSats for education and research; and military/defense satellites.

Loading next visibility...
Identifier
1806, 1965-098B
Orbit
LEO
Country
Flag of USUS
Related business
Manufacturer
APL
Mission
Civil Science
Bus & Motor
DME, Unknown motor
Mass
98 kg wet, 98 kg dry
Launch date (UTC)
1965-11-29 (60 years ago)
Launch vehicle
THOR SLV-2 AGENA B
Launch site
Air Force Western Test Range (AFWTR)
Object type
Payload
Rocket body
Debris
Shape & HBR
Oct Cyl, 0.5 m
Radar Cross Section
0.700 m², Medium (>0.1 m² and < 1m²)

Expand to show TLE details & history
Last TLE update: 9 hours ago

TLE from 9 hours ago
0 EXPLORER 31 (ISIS-X)
1 01806U 65098B   25242.95973336  .00000619  00000-0  21539-3 0  9992
2 01806  79.7729 229.1447 1424506 343.3310  12.5132 12.07977795613644
Epoch: 2025-08-30T23:02Z
TLE epoch observation values (Epoch: 2025-08-30T23:02:00.962Z)
Latitude
-0°
Longitude
-95.74585°
Altitude
541.63 km
Speed
8.098 km/s
True Right ascension
15h 16m 34s
True Declination
0° 00' 00"
Sunlit
Object was in daylight at epoch
Visualization orbit readout
Latitude
Unknown
Longitude
Unknown
Altitude
Unknown
Speed
Unknown
Apparent Right ascension
Unknown
Apparent Declination
Unknown
Sunlit
N/A
Visualization observer readout
Local Sidereal Time
00:08:26
Azimuth
Unknown
Elevation
Unknown
Doppler factor
Unknown
Orbital elements
Apogee altitude
2,785.366 km
Perigee altitude
500.197 km
Semi-major axis
8,020.919 km
Eccentricity
0.14245
Inclination
79.7729°
RAAN
229.1447°
Arg. of periapsis
343.331°
True anomaly
16.78231°
Mean anomaly
12.5132°
Eccentric anomaly
14.56583°
Mean motion
3.02139 °/min
Orbital period
119.15 mins
BSTAR
0.00021539
Loading maneuver chart data...
Computing Atmospheric mass density...
Loading historical data...
Loading historical data...
Loading historical data...
Loading historical data...
Loading historical data...
Loading historical data...
Loading historical data...

Documentation

Showing up to 5 results
|